Location: Haulchin
(50.3172°N, 3.4360°E)
Time: 02:00:29
(UTC+00:00)

Cosmos 1707 - Pass Details

Date: 23 May 2024
Orbit: 474 x 486 km, 82.5° (Epoch: 16 June)

Event Time Altitude Azimuth Distance (km) Brightness Sun altitude
Exits shadow 00:26:57 21° 259° (W) 1,131 4.2 -18.4°
Maximum altitude 00:28:07 25° 289° (WNW) 1,013 4.2 -18.3°
Drops below altitude 10° 00:31:13 10° 347° (NNW) 1,679 6.3 -18.2°
Sets 00:33:36 0° 1° (N) 2,562 7.8 -18.2°
